sat.trackr.live / text

‹ back to catalog

STARLINK-4270

NORAD 52863 · 2022-062AK

PAYLOAD ACTIVE UNKNOWN

§ Identity

Operator
Country
US
Launch date
2022-06-17
Launch site
AFETR
Launch vehicle
Mass (kg)
RCS (m²)

Purposes: comms

External: N2YO · Heavens-Above · Gunter

§ Orbital elements

Epoch: 2026-05-25T02:34:41.617632Z

Period
95.44 min
Inclination
53.2130°
Eccentricity
0.0001188
Mean motion
15.08842568 rev/d
Perigee alt
538.9 km
Apogee alt
540.6 km
Semi-major
6,917.9 km
B*
3.1594e-5
RAAN
41.0687°
Arg perigee
79.7786°
Mean anomaly
280.3340°
Rev number
21,746

§ Raw data

STARLINK-42701 52863U 22062AK  26145.10742613  .00000215  00000+0  31594-4 0  99912 52863  53.2130  41.0687 0001188  79.7786 280.3340 15.08842568217465

JSON: /api/v1/satellites/52863 · /tle

For live sub-satellite position, see the globe view (requires WebGL).

§ Visibility from observer

Set your observer location to see the next 7 days of passes ≥ 10°. The values pass through the URL so the page stays shareable.

No JS? Fill the form by hand. The geolocation button needs JavaScript.